STARLINK-37645, 69371

Orbit data source: Space-Track

STARLINK-37645, 69371 is a payload satellite owned by SpaceX/Seattle (US) in LEO that was launched on Thu, 04 Jun 2026 UTC via an FALCON 9 launch vehicle from the Air Force Eastern Test Range (AFETR). Payload-class satellites include a variety of spacecraft equipped with specific instruments for various scientific and technological missions. These include communications satellites like Starlink; space stations such as the ISS; scientific satellites like the Hubble; Earth observation satellites from companies like Planet Labs, Umbra, and HawkEye 360; GPS; miniature CubeSats for education and research; and military/defense satellites.

Loading next visibility...
Identifier
69371, 2026-123U
Orbit
LEO
Country
Flag of USUS
Related business
Manufacturer
SpaceX/Seattle
Mission
Operational spacecraft
Bus & Motor
STARLINK V2MO, Unknown motor
Mass
575 kg wet, ~530 kg dry
Launch date (UTC)
2026-06-04 (2 months ago)
Launch vehicle
FALCON 9
Launch site
Air Force Eastern Test Range (AFETR)
Object type
Payload
Rocket body
Debris
Shape & HBR
BOX + PAN, 17.7 m
Radar Cross Section
Large (>1 m²)

Expand to show TLE details & history
Last TLE update: 21 hours ago

TLE from 21 hours ago
0 STARLINK-37645
1 69371U 26123U   26207.56547984  .00212016  00000-0  13492-2 0  9998
2 69371  53.1557  45.2731 0000588  82.1838 277.9249 15.75300430  8250
Epoch: 2026-07-26T13:34Z
TLE epoch observation values (Epoch: 2026-07-26T13:34:17.458Z)
Latitude
-0.00001°
Longitude
-102.56123°
Altitude
344.639 km
Speed
7.703 km/s
True Right ascension
03h 01m 05s
True Declination
0° 00' 00"
Sunlit
Object was in daylight at epoch
Visualization orbit readout
Latitude
Unknown
Longitude
Unknown
Altitude
Unknown
Speed
Unknown
Apparent Right ascension
Unknown
Apparent Declination
Unknown
Sunlit
N/A
Visualization observer readout
Local Sidereal Time
00:02:15
Azimuth
Unknown
Elevation
Unknown
Doppler factor
Unknown
Orbital elements
Apogee altitude
344.434 km
Perigee altitude
343.643 km
Semi-major axis
6,722.175 km
Eccentricity
0.00006
Inclination
53.1557°
RAAN
45.2731°
Arg. of periapsis
82.1838°
True anomaly
277.91823°
Mean anomaly
277.9249°
Eccentric anomaly
277.92156°
Mean motion
3.93802 °/min
Orbital period
91.42 mins
BSTAR
0.0013492
Loading maneuver chart data...
Computing Atmospheric mass density...
Loading historical data...
Loading historical data...
Loading historical data...
Loading historical data...
Loading historical data...
Loading historical data...
Loading historical data...

Documentation

Showing up to 5 results
|